User: anonymous   Login
Location: Unspecified
(0.0000°N, 0.0000°E)
Time: 07:47:15
(UTC+02:00)
Language:

Cosmos 1833 Rocket - Orbit

View from above orbital plane
View from above orbital plane
View from above satellite
View from above satellite

Ground track
Ground track

The orbit data is extracted from the following two-line orbital elements,

1 17590U 87027B   15212.20124877 -.00000258  00000-0 -10514-3 0  9999
2 17590 071.0032 156.5466 0007397 271.1868 088.8408 14.16700353466821
Epoch (UTC): 31 July 2015 04:49:47
Eccentricity: 0.0007397
inclination: 71.0032°
perigee height: 831 km
apogee height: 842 km
right ascension of ascending node: 156.5466°
argument of perigee: 271.1868°
revolutions per day: 14.16700353
mean anomaly at epoch: 88.8408°
orbit number at epoch: 46682

The dashed part of the orbit path shows where the satellite is in the earth's shadow,  

DLR